KX4BE Weather Reports


Display with metric or nautical units.
time (UTC)temp
F
wind
direction
speed
MPH
gust
MPH
rain 1hr
in
rain 24hr
in
rain mn
in
humidity
%
barometer
mb
20260502224342 63 53 2.0 12.0 0.00 0.00 0.00 44 1017.1
20260502223839 63 330 3.0 12.0 0.00 0.00 0.00 41 1017.0
20260502223340 64 342 2.0 9.0 0.00 0.00 0.00 43 1016.9
20260502222834 64 319 1.0 6.0 0.00 0.00 0.00 42 1016.9
20260502222333 64 317 2.0 5.0 0.00 0.00 0.00 42 1016.8
20260502221833 64 166 1.0 5.0 0.00 0.00 0.00 41 1016.8
20260502221332 64 332 2.0 8.0 0.00 0.00 0.00 41 1016.7
20260502220851 64 311 1.0 3.0 0.00 0.00 0.00 42 1016.8
20260502220409 64 71 1.0 8.0 0.00 0.00 0.00 42 1016.8
20260502215843 64 300 1.0 8.0 0.00 0.00 0.00 41 1016.7
20260502215342 64 31 2.0 5.0 0.00 0.00 0.00 43 1016.7
20260502214842 65 360 2.0 6.0 0.00 0.00 0.00 40 1016.6
20260502214345 65 124 2.0 11.0 0.00 0.00 0.00 39 1016.5
20260502213904 65 26 3.0 11.0 0.00 0.00 0.00 40 1016.5
20260502213341 65 351 4.0 10.0 0.00 0.00 0.00 38 1016.4
20260502212834 66 355 3.0 10.0 0.00 0.00 0.00 39 1016.5
20260502212333 66 44 4.0 11.0 0.00 0.00 0.00 40 1016.4
20260502211833 66 5 4.0 11.0 0.00 0.00 0.00 41 1016.4
20260502211332 65 274 3.0 16.0 0.00 0.00 0.00 39 1016.4
20260502210831 66 281 4.0 16.0 0.00 0.00 0.00 43 1016.4
20260502210332 66 72 3.0 10.0 0.00 0.00 0.00 38 1016.5
20260502205848 65 145 3.0 10.0 0.00 0.00 0.00 39 1016.4
20260502205347 66 30 2.0 5.0 0.00 0.00 0.00 42 1016.4
20260502204846 66 166 2.0 6.0 0.00 0.00 0.00 39 1016.5
20260502204406 66 116 3.0 16.0 0.00 0.00 0.00 41 1016.5
20260502203843 67 59 4.0 16.0 0.00 0.00 0.00 39 1016.7
20260502203405 67 46 2.0 10.0 0.00 0.00 0.00 41 1016.4
20260502202838 67 143 3.0 7.0 0.00 0.00 0.00 37 1016.4
20260502202337 67 40 2.0 10.0 0.00 0.00 0.00 41 1016.6
20260502201839 67 336 3.0 10.0 0.00 0.00 0.00 39 1016.6
20260502201339 67 5 3.0 13.0 0.00 0.00 0.00 37 1016.5
20260502200837 67 339 2.0 13.0 0.00 0.00 0.00 40 1016.7
20260502200337 68 279 4.0 12.0 0.00 0.00 0.00 38 1016.6
20260502195850 68 344 3.0 13.0 0.00 0.00 0.00 37 1016.6
20260502195407 68 348 5.0 13.0 0.00 0.00 0.00 37 1016.6
20260502194844 68 12 2.0 13.0 0.00 0.00 0.00 39 1016.8
20260502194343 68 355 4.0 13.0 0.00 0.00 0.00 38 1016.7
20260502193842 67 83 4.0 11.0 0.00 0.00 0.00 39 1016.6
20260502193344 67 81 3.0 6.0 0.00 0.00 0.00 42 1016.6
20260502192839 68 321 2.0 6.0 0.00 0.00 0.00 36 1016.7
20260502192339 67 78 3.0 8.0 0.00 0.00 0.00 39 1016.8
20260502191835 67 94 2.0 8.0 0.00 0.00 0.00 43 1016.9
20260502191336 67 17 2.0 9.0 0.00 0.00 0.00 42 1016.8
20260502190833 66 40 2.0 9.0 0.00 0.00 0.00 38 1016.8
20260502190414 67 259 2.0 9.0 0.00 0.00 0.00 42 1016.8
20260502185908 67 15 2.0 9.0 0.00 0.00 0.00 38 1016.9
20260502185331 67 311 2.0 9.0 0.00 0.00 0.00 38 1016.8
20260502184847 67 59 2.0 8.0 0.00 0.00 0.00 40 1016.9
20260502184347 66 96 2.0 13.0 0.00 0.00 0.00 41 1017.0
20260502183843 66 28 2.0 6.0 0.00 0.00 0.00 42 1017.0
20260502183343 66 287 3.0 6.0 0.00 0.00 0.00 40 1017.0
20260502182835 66 109 2.0 10.0 0.00 0.00 0.00 42 1017.0
20260502182335 65 291 4.0 10.0 0.00 0.00 0.00 43 1017.1
20260502181854 66 345 2.0 10.0 0.00 0.00 0.00 42 1017.0
20260502181349 66 340 3.0 14.0 0.00 0.00 0.00 41 1017.1
20260502180848 66 317 3.0 14.0 0.00 0.00 0.00 44 1017.2
20260502180409 66 339 2.0 11.0 0.00 0.00 0.00 48 1017.3
20260502170349 64 304 2.0 9.0 0.00 0.00 0.00 47 1017.7
20260502163836 63 64 5.0 12.0 0.00 0.00 0.00 46 1017.9
20260502163353 62 355 4.0 12.0 0.00 0.00 0.00 48 1017.9
20260502162846 61 96 5.0 11.0 0.00 0.00 0.00 49 1018.1
20260502162346 61 58 5.0 9.0 0.00 0.00 0.00 48 1018.2
20260502161845 61 317 3.0 8.0 0.00 0.00 0.00 50 1018.2
20260502161345 61 355 3.0 8.0 0.00 0.00 0.00 49 1018.2
20260502160903 61 56 3.0 10.0 0.00 0.00 0.00 49 1018.3
20260502160343 60 25 5.0 10.0 0.00 0.00 0.00 49 1018.3
20260502151848 59 355 3.0 11.0 0.00 0.00 0.00 48 1018.0
20260502151348 59 360 2.0 15.0 0.00 0.00 0.00 50 1017.8
20260502150907 60 46 3.0 13.0 0.00 0.00 0.00 49 1017.8
20260502150346 60 17 5.0 12.0 0.00 0.00 0.00 46 1017.6
20260502130342 55 16 2.0 8.0 0.00 0.00 0.00 65 1017.2
20260502123334 53 48 1.0 7.0 0.00 0.00 0.00 68 1017.1
20260502122829 53 14 3.0 7.0 0.00 0.00 0.00 69 1016.8
20260502122350 53 329 2.0 5.0 0.00 0.00 0.00 68 1016.8
20260502121908 52 346 1.0 6.0 0.00 0.00 0.00 69 1016.9
20260502121407 52 32 2.0 6.0 0.00 0.00 0.00 69 1017.0
20260502120841 52 9 2.0 8.0 0.00 0.00 0.00 69 1016.8
20260502120401 52 9 1.0 8.0 0.00 0.00 0.00 69 1016.8
20260502115835 52 21 1.0 5.0 0.00 0.00 0.00 69 1016.8
20260502115335 52 317 1.0 3.0 0.00 0.00 0.00 68 1016.9
20260502114833 52 19 1.0 3.0 0.00 0.00 0.00 69 1016.8
20260502114410 52 5 1.0 4.0 0.00 0.00 0.00 69 1016.7
20260502113846 52 67 1.0 4.0 0.00 0.00 0.00 69 1016.8
20260502113347 52 9 1.0 3.0 0.00 0.00 0.00 69 1016.8
20260502112842 52 336 2.0 3.0 0.00 0.00 0.00 70 1016.8
20260502112343 52 52 1.0 4.0 0.00 0.00 0.00 68 1016.7
20260502111841 52 289 2.0 4.0 0.00 0.00 0.00 69 1016.7
20260502111341 52 18 0.0 4.0 0.00 0.00 0.00 69 1016.7
20260502110858 52 18 0.0 3.0 0.00 0.00 0.00 68 1016.6
20260502110339 52 48 1.0 3.0 0.00 0.00 0.00 68 1016.7
20260502105831 52 48 1.0 3.0 0.00 0.00 0.00 70 1016.6
20260502105331 52 65 1.0 3.0 0.00 0.00 0.00 68 1016.5
20260502104909 52 17 1.0 3.0 0.00 0.00 0.00 65 1016.3
20260502104348 52 345 1.0 3.0 0.00 0.00 0.00 65 1016.3
20260502103904 53 14 1.0 6.0 0.00 0.00 0.00 65 1016.2
20260502103343 53 24 2.0 5.0 0.00 0.00 0.00 64 1016.3
20260502102835 53 79 1.0 5.0 0.00 0.00 0.00 66 1016.3
20260502102335 53 313 2.0 9.0 0.00 0.00 0.00 65 1016.4
20260502101834 53 338 2.0 9.0 0.00 0.00 0.00 64 1016.2
20260502101334 53 31 2.0 8.0 0.00 0.00 0.00 63 1016.4
20260502100831 53 13 2.0 5.0 0.00 0.00 0.00 64 1016.6
20260502100352 53 328 3.0 4.0 0.00 0.00 0.00 63 1016.5
20260502091334 53 46 2.0 10.0 0.00 0.00 0.00 62 1016.3
20260502090833 53 360 2.0 11.0 0.00 0.00 0.00 63 1016.1
20260502090352 53 26 3.0 11.0 0.00 0.00 0.00 62 1016.2
20260502071358 55 325 1.0 5.0 0.00 0.00 0.00 60 1016.7
20260502070854 55 321 2.0 5.0 0.00 0.00 0.00 60 1016.8
20260502070335 55 346 1.0 5.0 0.00 0.00 0.00 61 1017.2
20260502065909 55 311 2.0 5.0 0.00 0.00 0.00 60 1017.4
20260502065348 55 355 1.0 6.0 0.00 0.00 0.00 61 1017.3
20260502064909 55 86 2.0 6.0 0.00 0.00 0.00 61 1017.4
20260502064407 55 335 1.0 10.0 0.00 0.00 0.00 60 1017.4
20260502063844 55 26 3.0 10.0 0.00 0.00 0.00 57 1017.2
20260502063345 55 59 2.0 6.0 0.00 0.00 0.00 59 1017.1
20260502062840 55 5 2.0 5.0 0.00 0.00 0.00 59 1017.0
20260502062400 55 360 2.0 5.0 0.00 0.00 0.00 57 1017.0
20260502061856 56 67 1.0 6.0 0.00 0.00 0.00 55 1017.0
20260502061335 56 310 2.0 6.0 0.00 0.00 0.00 58 1017.1
20260502060834 56 53 3.0 8.0 0.00 0.00 0.00 58 1017.0
20260502060333 56 49 2.0 8.0 0.00 0.00 0.00 58 1017.2
20260502055831 56 317 2.0 5.0 0.00 0.00 0.00 59 1017.4
20260502055352 56 336 2.0 5.0 0.00 0.00 0.00 58 1017.3
20260502054847 56 19 0.0 4.0 0.00 0.00 0.00 58 1017.3
20260502054347 56 19 1.0 10.0 0.00 0.00 0.00 58 1017.3
20260502053843 56 344 1.0 10.0 0.00 0.00 0.00 59 1017.1
20260502053343 56 298 2.0 10.0 0.00 0.00 0.00 55 1017.0
20260502052836 56 13 2.0 9.0 0.00 0.00 0.00 61 1016.9
20260502052336 56 300 2.0 5.0 0.00 0.00 0.00 55 1016.9
20260502051834 56 49 2.0 7.0 0.00 0.00 0.00 57 1016.9
20260502051334 56 301 2.0 7.0 0.00 0.00 0.00 60 1017.0
20260502050834 57 300 2.0 4.0 0.00 0.00 0.00 61 1016.9
20260502045841 57 88 1.0 6.0 0.00 0.00 0.00 55 1016.8
20260502045341 57 355 1.0 6.0 0.00 0.00 0.00 55 1016.9
20260502044844 57 350 1.0 8.0 0.00 0.00 0.00 56 1016.9
20260502044343 57 15 3.0 8.0 0.00 0.00 0.00 53 1017.0
20260502043838 58 204 3.0 7.0 0.00 0.00 0.00 54 1016.9
20260502043339 58 9 2.0 6.0 0.00 0.00 0.00 57 1017.1
20260502042851 58 5 2.0 4.0 0.00 0.00 0.00 53 1017.0
20260502042348 58 340 2.0 4.0 0.00 0.00 0.00 53 1016.9
20260502041907 58 76 1.0 3.0 0.00 0.00 0.00 55 1017.0
20260502041346 58 76 1.0 4.0 0.00 0.00 0.00 53 1017.1
20260502040846 58 84 2.0 4.0 0.00 0.00 0.00 53 1017.0
20260502040346 58 95 2.0 4.0 0.00 0.00 0.00 54 1016.9
20260502035841 58 82 2.0 4.0 0.00 0.00 0.00 55 1016.9
20260502035341 59 269 1.0 4.0 0.00 0.00 0.00 59 1017.1
20260502034837 59 340 1.0 4.0 0.00 0.00 0.00 60 1017.1
20260502034336 59 5 1.0 2.0 0.00 0.00 0.00 59 1017.0
20260502033834 59 355 1.0 6.0 0.00 0.00 0.00 55 1017.0
20260502033339 59 21 2.0 6.0 0.00 0.00 0.00 57 1017.0
20260502032834 59 113 1.0 3.0 0.00 0.00 0.00 57 1017.0
20260502032355 60 133 1.0 16.0 0.00 0.00 0.00 58 1017.1
20260502031852 60 5 1.0 16.0 0.00 0.00 0.00 58 1017.1
20260502031330 60 5 2.0 6.0 0.00 0.00 0.00 59 1016.9
20260502030848 60 55 2.0 8.0 0.00 0.00 0.00 59 1016.7
20260502030350 60 121 3.0 8.0 0.00 0.00 0.00 61 1016.7
20260502025844 60 70 3.0 9.0 0.00 0.00 0.00 62 1016.6
20260502025345 60 78 3.0 10.0 0.00 0.00 0.00 62 1016.7
20260502024843 60 279 3.0 10.0 0.00 0.00 0.00 64 1016.5
20260502024339 60 340 2.0 9.0 0.00 0.00 0.00 62 1016.2
20260502023837 60 54 2.0 10.0 0.00 0.00 0.00 61 1016.3
20260502023337 60 26 3.0 10.0 0.00 0.00 0.00 62 1016.3
20260502022833 61 5 3.0 10.0 0.00 0.00 0.00 61 1016.4
20260502022333 61 299 2.0 9.0 0.00 0.00 0.00 62 1016.5
20260502021830 61 5 2.0 9.0 0.00 0.00 0.00 63 1016.4
20260502021410 61 318 2.0 10.0 0.00 0.00 0.00 62 1016.3
20260502020906 61 333 2.0 10.0 0.00 0.00 0.00 64 1016.3
20260502020406 61 74 3.0 8.0 0.00 0.00 0.00 66 1016.3
20260502015841 61 322 2.0 11.0 0.00 0.00 0.00 64 1016.2
20260502015401 61 341 2.0 11.0 0.00 0.00 0.00 66 1016.2
20260502014843 61 331 2.0 12.0 0.00 0.00 0.00 67 1016.3
20260502014344 61 294 2.0 12.0 0.00 0.00 0.00 67 1016.2
20260502013839 62 338 2.0 9.0 0.00 0.00 0.00 67 1016.1
20260502013339 62 322 1.0 5.0 0.00 0.00 0.00 65 1016.1
20260502012831 62 315 1.0 5.0 0.00 0.00 0.00 63 1016.0
20260502012331 62 312 2.0 5.0 0.00 0.00 0.00 64 1016.1
20260502011848 62 75 1.0 4.0 0.00 0.00 0.00 62 1016.0
20260502011348 62 13 1.0 3.0 0.00 0.00 0.00 61 1016.0
20260502010846 62 10 1.0 3.0 0.00 0.00 0.00 61 1016.0
20260502010346 62 355 1.0 3.0 0.00 0.00 0.00 61 1015.6
20260502005841 62 360 0.0 7.0 0.00 0.00 0.00 61 1015.4
20260502005342 62 9 1.0 3.0 0.00 0.00 0.00 61 1015.3
20260502004840 62 302 1.0 3.0 0.00 0.00 0.00 61 1015.3
20260502004340 63 326 0.0 2.0 0.00 0.00 0.00 61 1015.4
20260502003842 63 327 0.0 3.0 0.00 0.00 0.00 60 1015.4
20260502003343 63 323 0.0 4.0 0.00 0.00 0.00 60 1015.1
20260502002837 63 312 1.0 4.0 0.00 0.00 0.00 60 1015.1
20260502002336 63 286 0.0 2.0 0.00 0.00 0.00 60 1015.0
20260502001834 64 286 0.0 2.0 0.00 0.00 0.00 62 1015.2
20260502001334 64 271 1.0 2.0 0.00 0.00 0.00 59 1015.0
20260502000830 64 301 1.0 2.0 0.00 0.00 0.00 58 1014.8
20260502000351 65 299 0.0 5.0 0.00 0.00 0.00 57 1014.7
20260501235845 65 282 327.0 327.0 0.00 0.00 0.00 55 1014.7
20260501235329 65 308 1.0 4.0 0.00 0.00 0.00 57 1014.9
20260501234847 65 307 1.0 5.0 0.00 0.00 0.00 54 1014.9
20260501234346 65 334 1.0 5.0 0.00 0.00 0.00 56 1015.0
20260501233905 65 344 1.0 3.0 0.00 0.00 0.00 55 1014.7
20260501233346 66 122 0.0 3.0 0.00 0.00 0.00 54 1014.8
20260501232841 66 339 1.0 3.0 0.00 0.00 0.00 56 1014.9
20260501232357 66 319 1.0 3.0 0.00 0.00 0.00 54 1015.0
20260501231839 66 307 0.0 3.0 0.00 0.00 0.00 55 1015.1
20260501231338 66 298 1.0 4.0 0.00 0.00 0.00 52 1014.9
20260501230835 66 306 1.0 4.0 0.00 0.00 0.00 52 1014.9
20260501230336 66 298 1.0 4.0 0.00 0.00 0.00 52 1014.9
20260501225831 66 5 1.0 4.0 0.00 0.00 0.00 53 1014.7
20260501225351 66 9 1.0 4.0 0.00 0.00 0.00 51 1014.5
20260501224908 67 342 0.0 4.0 0.00 0.00 0.00 54 1014.4